CW1662 Weather Reports


time (UTC)temp
C
wind
direction
speed
KPH
gust
KPH
rain 1hr
cm
rain 24hr
cm
rain mn
cm
humidity
%
barometer
mb
20260504024327 10 287 0.0 0.0 0.00 0.00 0.00 59 1013.3
20260504023852 10 287 0.0 0.0 0.00 0.00 0.00 59 1013.2
20260504023335 10 287 0.0 0.0 0.00 0.00 0.00 59 1013.2
20260504022840 10 287 0.0 0.0 0.00 0.00 0.00 58 1013.1
20260504022329 10 287 0.0 0.0 0.00 0.00 0.00 58 1013.1
20260504021836 10 287 0.0 0.0 0.00 0.00 0.00 58 1013.1
20260504021403 10 287 0.0 0.0 0.00 0.00 0.00 57 1013.1
20260504020827 10 287 0.0 0.0 0.00 0.00 0.00 56 1013.0
20260504020331 10 287 0.0 0.0 0.00 0.00 0.00 55 1013.1
20260504015837 11 287 0.0 0.0 0.00 0.00 0.00 55 1013.0
20260504015324 11 287 0.0 0.0 0.00 0.00 0.00 54 1012.8
20260504014829 10 287 0.0 0.0 0.00 0.00 0.00 54 1012.8
20260504014333 10 287 0.0 0.0 0.00 0.00 0.00 54 1012.8
20260504013838 10 287 0.0 0.0 0.00 0.00 0.00 53 1012.9
20260504013342 11 287 0.0 0.0 0.00 0.00 0.00 53 1012.9
20260504012831 11 287 0.0 0.0 0.00 0.00 0.00 53 1012.7
20260504012354 11 287 0.0 0.0 0.00 0.00 0.00 53 1012.7
20260504011838 11 287 0.0 1.6 0.00 0.00 0.00 54 1012.6
20260504011343 11 287 0.0 1.6 0.00 0.00 0.00 53 1012.6
20260504010827 11 287 1.6 3.2 0.00 0.00 0.00 52 1012.6
20260504010332 11 287 1.6 3.2 0.00 0.00 0.00 52 1012.6
20260504005836 11 287 0.0 1.6 0.00 0.00 0.00 51 1012.6
20260504005340 11 287 0.0 3.2 0.00 0.00 0.00 50 1012.6
20260504004904 12 287 0.0 3.2 0.00 0.00 0.00 49 1012.6
20260504004348 12 287 0.0 1.6 0.00 0.00 0.00 48 1012.6
20260504003830 12 287 0.0 1.6 0.00 0.00 0.00 47 1012.6
20260504003337 12 287 0.0 1.6 0.00 0.00 0.00 46 1012.5
20260504002823 12 287 1.6 1.6 0.00 0.00 0.00 47 1012.4
20260504002333 12 287 0.0 1.6 0.00 0.00 0.00 47 1012.3
20260504001841 13 287 0.0 1.6 0.00 0.00 0.00 45 1012.3
20260504001325 13 287 0.0 1.6 0.00 0.00 0.00 44 1012.4
20260504000830 13 287 0.0 3.2 0.00 0.00 0.00 43 1012.3
20260504000334 14 287 0.0 4.8 0.00 0.00 0.00 43 1012.2
20260503235859 15 287 1.6 4.8 0.00 0.00 0.00 42 1012.2
20260503235342 15 287 1.6 4.8 0.00 0.00 0.00 42 1012.2
20260503234826 15 273 3.2 6.4 0.00 0.00 0.00 39 1012.2
20260503234334 15 273 4.8 16.1 0.00 0.00 0.00 39 1012.2
20260503233838 15 292 3.2 16.1 0.00 0.00 0.00 40 1012.2
20260503233343 15 290 3.2 6.4 0.00 0.00 0.00 41 1012.1
20260503232832 16 287 4.8 6.4 0.00 0.00 0.00 39 1012.0
20260503232334 16 283 3.2 9.7 0.00 0.00 0.00 39 1012.0
20260503231840 16 284 4.8 8.0 0.00 0.00 0.00 38 1011.9
20260503231327 16 270 4.8 14.5 0.00 0.00 0.00 38 1012.0
20260503230835 16 290 8.0 12.9 0.00 0.00 0.00 35 1011.9
20260503230340 17 306 6.4 19.3 0.00 0.00 0.00 37 1012.0
20260503225844 17 300 9.7 19.3 0.00 0.00 0.00 35 1011.8
20260503225327 17 315 6.4 20.9 0.00 0.00 0.00 38 1011.7
20260503224832 17 279 12.9 19.3 0.00 0.00 0.00 35 1011.8
20260503224337 17 265 9.7 22.5 0.00 0.00 0.00 33 1011.8
20260503223825 17 275 8.0 22.5 0.00 0.00 0.00 37 1011.8
20260503223330 17 346 8.0 16.1 0.00 0.00 0.00 34 1011.9
20260503222837 17 333 4.8 16.1 0.00 0.00 0.00 35 1011.9
20260503222341 17 336 9.7 16.1 0.00 0.00 0.00 37 1012.0
20260503221825 17 325 9.7 19.3 0.00 0.00 0.00 35 1011.9
20260503221330 17 336 11.3 24.1 0.00 0.00 0.00 36 1012.0
20260503220834 17 309 8.0 24.1 0.00 0.00 0.00 35 1011.9
20260503220342 17 319 12.9 16.1 0.00 0.00 0.00 38 1012.0
20260503215827 17 285 6.4 14.5 0.00 0.00 0.00 36 1012.1
20260503215330 17 293 8.0 16.1 0.00 0.00 0.00 34 1012.0
20260503214835 17 311 9.7 16.1 0.00 0.00 0.00 34 1012.1
20260503214322 17 279 6.4 16.1 0.00 0.00 0.00 35 1012.1
20260503213830 17 311 4.8 19.3 0.00 0.00 0.00 34 1012.0
20260503213335 17 317 12.9 19.3 0.00 0.00 0.00 33 1012.2
20260503212859 17 275 9.7 19.3 0.00 0.00 0.00 33 1012.2
20260503212342 17 299 12.9 19.3 0.00 0.00 0.00 36 1012.0
20260503211826 17 342 6.4 16.1 0.00 0.00 0.00 35 1012.1
20260503211331 17 329 8.0 16.1 0.00 0.00 0.00 40 1012.2
20260503210835 17 316 8.0 22.5 0.00 0.00 0.00 33 1012.2
20260503210340 17 342 4.8 22.5 0.00 0.00 0.00 36 1012.2
20260503205845 17 302 11.3 19.3 0.00 0.00 0.00 36 1012.1
20260503205328 17 300 14.5 27.4 0.00 0.00 0.00 36 1012.1
20260503204837 17 326 6.4 27.4 0.00 0.00 0.00 36 1012.2
20260503204401 17 331 14.5 24.1 0.00 0.00 0.00 38 1012.2
20260503203828 17 287 9.7 24.1 0.00 0.00 0.00 35 1012.3
20260503203351 17 281 16.1 24.1 0.00 0.00 0.00 36 1012.3
20260503202838 17 278 14.5 19.3 0.00 0.00 0.00 35 1012.2
20260503202341 17 259 11.3 19.3 0.00 0.00 0.00 36 1012.4
20260503201826 17 325 12.9 25.7 0.00 0.00 0.00 37 1012.5
20260503201349 16 277 19.3 25.7 0.00 0.00 0.00 35 1012.5
20260503200837 17 274 14.5 19.3 0.00 0.00 0.00 37 1012.6
20260503200341 16 307 8.0 17.7 0.00 0.00 0.00 38 1012.6
20260503195825 16 355 8.0 22.5 0.00 0.00 0.00 37 1012.7
20260503195329 16 286 11.3 22.5 0.00 0.00 0.00 36 1012.9
20260503194853 16 316 11.3 25.7 0.00 0.00 0.00 37 1012.9
20260503194337 17 259 16.1 25.7 0.00 0.00 0.00 36 1012.8
20260503193826 17 304 12.9 30.6 0.00 0.00 0.00 35 1012.9
20260503193330 17 287 11.3 30.6 0.00 0.00 0.00 34 1012.9
20260503192855 17 290 9.7 20.9 0.00 0.00 0.00 36 1013.0
20260503192337 17 331 9.7 25.7 0.00 0.00 0.00 35 1013.0
20260503191842 17 333 14.5 25.7 0.00 0.00 0.00 34 1013.4
20260503191326 17 294 8.0 30.6 0.00 0.00 0.00 36 1013.2
20260503190834 16 303 16.1 30.6 0.00 0.00 0.00 38 1013.2
20260503190339 16 315 8.0 20.9 0.00 0.00 0.00 38 1013.2
20260503185843 16 325 11.3 24.1 0.00 0.00 0.00 39 1013.4
20260503185326 16 300 17.7 25.7 0.00 0.00 0.00 38 1013.4
20260503184830 16 312 16.1 25.7 0.00 0.00 0.00 40 1013.4
20260503184355 16 342 20.9 25.7 0.00 0.00 0.00 37 1013.4
20260503183842 16 264 11.3 25.7 0.00 0.00 0.00 40 1013.7
20260503183327 16 277 11.3 25.7 0.00 0.00 0.00 33 1013.8
20260503182850 16 292 11.3 22.5 0.00 0.00 0.00 35 1013.7
20260503182336 16 301 11.3 25.7 0.00 0.00 0.00 39 1013.8
20260503181824 16 336 9.7 25.7 0.00 0.00 0.00 38 1013.8
20260503181329 16 252 17.7 22.5 0.00 0.00 0.00 34 1013.8
20260503180853 16 303 9.7 25.7 0.00 0.00 0.00 36 1013.9
20260503180337 16 5 8.0 25.7 0.00 0.00 0.00 33 1013.9
20260503175840 16 260 11.3 20.9 0.00 0.00 0.00 39 1013.9
20260503175344 16 311 11.3 27.4 0.00 0.00 0.00 35 1013.8
20260503174828 15 346 14.5 27.4 0.00 0.00 0.00 38 1013.9
20260503174333 15 297 17.7 29.0 0.00 0.00 0.00 36 1014.0
20260503173841 15 294 19.3 29.0 0.00 0.00 0.00 35 1014.1
20260503173346 15 292 11.3 22.5 0.00 0.00 0.00 43 1014.2
20260503172830 15 275 14.5 20.9 0.00 0.00 0.00 39 1014.2
20260503172333 15 288 11.3 25.7 0.00 0.00 0.00 37 1014.2
20260503171858 15 294 16.1 25.7 0.00 0.00 0.00 43 1014.3
20260503171341 15 271 16.1 22.5 0.00 0.00 0.00 42 1014.3
20260503170826 15 269 8.0 27.4 0.00 0.00 0.00 37 1014.4
20260503170332 15 315 17.7 27.4 0.00 0.00 0.00 41 1014.5
20260503150848 12 287 11.3 27.4 0.00 0.00 0.00 48 1015.7
20260503150331 12 299 19.3 24.1 0.00 0.00 0.00 49 1015.7
20260503131328 9 336 12.9 24.1 0.00 0.00 0.00 57 1016.1
20260503130853 9 287 8.0 24.1 0.00 0.00 0.00 61 1016.0
20260503130337 9 311 14.5 22.5 0.00 0.00 0.00 61 1016.0
20260503110339 4 297 0.0 0.0 0.00 0.00 0.00 78 1015.1
20260503090327 3 297 3.2 3.2 0.00 0.03 0.00 75 1014.0
20260503081333 4 297 1.6 3.2 0.00 0.03 0.00 72 1013.8
20260503080838 5 297 1.6 4.8 0.00 0.03 0.00 72 1013.7
20260503080326 5 297 1.6 4.8 0.00 0.03 0.00 71 1013.7
20260503072840 5 307 6.4 11.3 0.00 0.03 0.00 71 1013.3
20260503072327 6 321 4.8 9.7 0.00 0.03 0.00 70 1013.3
20260503071835 6 307 6.4 11.3 0.00 0.03 0.00 70 1013.3
20260503071339 6 299 4.8 11.3 0.00 0.03 0.00 70 1013.2
20260503070904 6 306 6.4 11.3 0.00 0.03 0.00 70 1013.2
20260503070328 6 313 6.4 9.7 0.00 0.03 0.00 70 1013.1
20260503060326 7 315 8.0 11.3 0.00 0.03 0.00 72 1013.0
20260503054823 7 298 4.8 8.0 0.00 0.03 0.00 72 1012.9
20260503054331 7 294 4.8 9.7 0.00 0.03 0.00 73 1013.0
20260503053835 7 313 4.8 9.7 0.00 0.03 0.00 72 1012.9
20260503053340 7 306 4.8 11.3 0.00 0.03 0.00 72 1013.0
20260503052824 7 286 4.8 11.3 0.00 0.03 0.00 72 1013.0
20260503052330 7 306 6.4 14.5 0.00 0.03 0.00 73 1013.0
20260503051837 6 319 8.0 14.5 0.00 0.03 0.00 73 1013.0
20260503051325 6 319 4.8 9.7 0.00 0.03 0.00 73 1013.1
20260503050850 6 311 6.4 8.0 0.00 0.03 0.00 73 1013.2
20260503050332 6 298 4.8 9.7 0.00 0.03 0.00 73 1013.1
20260503045838 7 278 4.8 9.7 0.00 0.03 0.00 72 1013.2
20260503045328 6 269 4.8 6.4 0.00 0.03 0.00 72 1013.2
20260503044836 7 269 3.2 9.7 0.00 0.03 0.00 72 1013.3
20260503044400 7 273 6.4 9.7 0.00 0.03 0.00 72 1013.4
20260503043823 7 275 4.8 8.0 0.00 0.03 0.00 72 1013.3
20260503043329 6 283 4.8 9.7 0.00 0.03 0.00 73 1013.2
20260503042837 6 308 6.4 9.7 0.00 0.03 0.00 74 1013.2
20260503042341 6 323 6.4 9.7 0.00 0.03 0.00 74 1013.2
20260503041825 6 310 6.4 9.7 0.00 0.03 0.00 74 1013.2
20260503041330 6 295 6.4 8.0 0.00 0.03 0.00 73 1013.3
20260503040834 6 311 4.8 8.0 0.00 0.03 0.00 72 1013.2
20260503040339 6 309 4.8 8.0 0.00 0.03 0.00 71 1013.2
20260503035827 6 309 4.8 8.0 0.00 0.03 0.00 70 1013.2
20260503035330 7 315 6.4 14.5 0.00 0.03 0.03 69 1013.3
20260503034834 7 310 9.7 16.1 0.00 0.03 0.03 69 1013.4
20260503034402 7 306 8.0 16.1 0.00 0.03 0.03 70 1013.4
20260503033826 7 297 8.0 11.3 0.00 0.03 0.03 70 1013.5
20260503033330 7 317 8.0 12.9 0.00 0.03 0.03 70 1013.5
20260503032835 7 316 8.0 12.9 0.00 0.03 0.03 70 1013.5
20260503032337 7 315 6.4 9.7 0.00 0.03 0.03 70 1013.6
20260503031824 7 306 6.4 9.7 0.00 0.03 0.03 70 1013.5
20260503031332 7 310 4.8 9.7 0.00 0.03 0.03 69 1013.5
20260503030836 7 309 4.8 9.7 0.00 0.03 0.03 69 1013.4
20260503030401 8 306 6.4 9.7 0.00 0.03 0.03 69 1013.4
20260503025843 8 299 3.2 6.4 0.00 0.03 0.03 69 1013.3
20260503025332 8 299 3.2 9.7 0.00 0.05 0.03 69 1013.5
20260503024840 8 298 4.8 9.7 0.00 0.05 0.03 69 1013.6